[[{"header":{"parameterUnit":"m.s-1","parameterCategory":1,"la1":30.2991,"la2":30.254,"lo1":-89.0895,"lo2":-89.0444,"dy":0.0017,"dx":0.0017,"nx":28,"ny":28,"refTime":"2024-03-16T03:00:00:Z","depth":0,"parameterNumber":2,"parameterNumberName":"U-component_of_WINDS"},"data":[0,0,0,0,0,0,0,0,0,0,0,0,0,0,0,0,0,0,0,0,0,0,0,0,0,0,0,0,0,0,0,0,0,0,0,0,0,0,0,0,0,0,0,0,0,0,0,0,0,0,0,0,0,0,0,0,0,0,-1.6287,-1.6288,0,-1.6345,-1.6346,-1.6346,-1.6309,-1.6307,-1.6306,-1.6304,-1.6364,-1.6367,-1.637,0,0,0,0,0,0,0,0,0,0,0,0,0,-1.6145,-1.6148,-1.6287,-1.6288,-1.6289,-1.6345,-1.6346,-1.6347,-1.6309,-1.6307,-1.6305,-1.6303,-1.6363,-1.6367,-1.637,0,0,0,0,0,0,0,0,0,0,0,0,0,-1.6205,-1.6149,-1.6287,-1.6277,-1.6277,-1.6345,-1.6346,-1.6347,-1.631,-1.6307,-1.6305,-1.6302,-1.6362,-1.6366,-1.6371,-1.6453,0,0,-1.6386,-1.6388,0,0,0,0,0,0,0,0,-1.6202,-1.6211,-1.6278,-1.6278,-1.6278,-1.6317,-1.6318,-1.6382,-1.6311,-1.6297,-1.6304,-1.6301,-1.6351,-1.6356,-1.6373,-1.6455,-1.6458,-1.6386,-1.6389,-1.6391,-1.6392,0,0,0,0,0,0,0,-1.6198,-1.6208,-1.631,-1.6279,-1.6279,-1.627,-1.6275,-1.633,-1.6338,-1.6298,-1.6296,-1.6303,-1.635,-1.6368,-1.6374,-1.6459,-1.6386,-1.639,-1.6393,-1.6395,-1.6612,-1.6615,0,0,0,0,0,0,-1.6195,-1.6205,-1.6308,-1.6312,-1.6233,-1.6274,-1.6281,-1.6307,-1.6337,-1.6339,-1.6305,-1.6301,-1.6361,-1.6368,-1.6376,-1.6473,-1.6391,-1.6396,-1.6398,-1.6609,-1.6613,-1.6616,0,0,0,0,0,0,-1.6192,-1.6204,-1.6306,-1.6258,-1.627,-1.628,-1.631,-1.631,-1.6328,-1.6342,-1.6344,-1.6322,-1.6359,-1.6369,-1.6434,-1.6475,-1.6398,-1.6402,-1.6606,-1.661,-1.6614,-1.667,0,0,0,0,0,0,-1.6188,-1.6203,-1.6234,-1.6259,-1.6273,-1.6363,-1.6312,-1.6313,-1.6336,-1.6331,-1.6359,-1.6361,-1.6358,-1.6427,-1.6439,-1.648,-1.6406,-1.6602,-1.6608,-1.6613,-1.6664,-1.6675,-1.6685,0,0,0,0,0,-1.6183,-1.6248,-1.6236,-1.6249,-1.6312,-1.6366,-1.6374,-1.6369,-1.634,-1.6371,-1.638,-1.636,-1.6469,-1.6434,-1.6447,-1.649,-1.6599,-1.6606,-1.6612,-1.666,-1.6673,-1.6685,0,0,0,0,0,0,-1.6228,-1.6251,-1.6238,-1.6313,-1.6338,-1.6359,-1.6399,-1.6384,-1.6417,-1.6412,-1.6405,-1.6411,-1.6479,-1.6491,-1.6452,-1.6571,-1.6529,-1.6539,-1.6561,-1.6574,-1.6584,-1.658,-1.641,0,0,0,0,0,-1.6247,-1.6289,-1.6306,-1.637,-1.6383,-1.6389,-1.6412,-1.6407,-1.6432,-1.6443,-1.6457,-1.6482,-1.6522,-1.6549,-1.6586,-1.6666,-1.6671,-1.6702,-1.6713,-1.6721,-1.6729,-1.6772,-1.6786,-1.6637,-1.6637,-1.6637,0,0,-1.6286,-1.6303,-1.633,-1.638,-1.6398,-1.6442,-1.6398,-1.6446,-1.6478,-1.645,-1.6512,-1.6523,-1.6551,-1.6624,-1.6657,-1.6636,-1.6772,-1.6729,-1.6736,-1.6739,-1.678,-1.6795,-1.6807,-1.6641,-1.6641,-1.664,0,0,-1.6379,-1.6397,-1.6452,-1.6472,-1.65,-1.6503,-1.6517,-1.6541,-1.6547,-1.661,-1.6589,-1.6628,-1.6697,-1.6718,-1.6737,-1.6839,-1.6822,-1.6851,-1.6905,-1.6948,-1.6959,-1.697,-1.7006,-1.702,-1.686,-1.686,-1.686,0,-1.6424,-1.6489,-1.6482,-1.6532,-1.6555,-1.6531,-1.6587,-1.6606,-1.6646,-1.6662,-1.6639,-1.6725,-1.6742,-1.6819,-1.6844,-1.6861,-1.6876,-1.6848,-1.6958,-1.6969,-1.6978,-1.7013,-1.7027,-1.6863,-1.6863,-1.6862,-1.6862,0,-1.6543,-1.6588,-1.6629,-1.6668,-1.6695,-1.6748,-1.675,-1.6778,-1.6771,-1.6776,-1.684,-1.686,-1.6902,-1.6919,-1.6912,-1.6996,-1.6983,-1.6959,-1.6917,-1.6996,-1.7029,-1.7042,-1.6868,-1.6867,-1.6866,-1.6865,0,0,-1.6666,-1.6701,-1.6716,-1.6733,-1.6763,-1.6798,-1.685,-1.689,-1.6915,-1.6943,-1.6986,-1.7045,-1.7024,-1.7046,-1.7041,-1.7078,-1.7158,-1.705,-1.7051,-1.707,-1.7252,-1.727,-1.7285,-1.7147,-1.7149,-1.7151,-1.725,0,-1.6761,-1.6851,-1.6847,-1.6932,-1.6974,-1.6952,-1.6997,-1.702,-1.7027,-1.7064,-1.7072,-1.7114,-1.7082,-1.7095,-1.7131,-1.7141,-1.7195,-1.7134,-1.7187,-1.7189,-1.7181,-1.7302,-1.7321,-1.7413,-1.7262,-1.7264,-1.7266,0,-1.6884,-1.6917,-1.7005,-1.7029,-1.7046,-1.7087,-1.7124,-1.7159,-1.7185,-1.7188,-1.7213,-1.7202,-1.7255,-1.7211,-1.7284,-1.7243,-1.7265,-1.7273,-1.7276,-1.7281,-1.7232,-1.731,-1.7442,-1.7456,-1.7286,-1.7284,-1.7283,0,-1.6966,-1.7031,-1.7093,-1.7108,-1.7138,-1.7167,-1.718,-1.7204,-1.7228,-1.7261,-1.7277,-1.7315,-1.7336,-1.7365,-1.7365,-1.7334,-1.7439,-1.7396,-1.7443,-1.7443,-1.7466,-1.7465,-1.7603,-1.748,-1.748,-1.748,-1.7479,0,-1.7072,-1.7128,-1.713,-1.7168,-1.7229,-1.7224,-1.7285,-1.7295,-1.7317,-1.7356,-1.734,-1.7377,-1.7375,-1.7413,-1.7413,-1.7474,-1.7483,-1.7487,-1.7487,-1.7489,-1.7488,-1.7503,-1.7497,-1.7483,-1.7483,-1.7482,-1.7481,0,-1.7174,-1.7177,-1.7243,-1.7265,-1.7272,-1.7316,-1.7336,-1.7372,-1.7377,-1.7428,-1.744,-1.7448,-1.7493,-1.7496,-1.7547,-1.7547,-1.762,-1.7613,-1.7612,-1.761,-1.7658,-1.7653,-1.7811,-1.7831,-1.7694,-1.7696,-1.7697,0,-1.7242,-1.7283,-1.731,-1.7336,-1.7351,-1.7392,-1.7417,-1.7414,-1.7441,-1.7474,-1.7506,-1.7549,-1.7583,-1.7654,-1.7666,-1.7705,-1.7698,-1.7751,-1.7704,-1.7705,-1.7699,-1.7697,-1.7701,-1.776,-1.7761,-1.7763,-1.7764,0,-1.7362,-1.7362,-1.7398,-1.7436,-1.7466,-1.7495,-1.7522,-1.7544,-1.7544,-1.7575,-1.762,-1.7646,-1.7699,-1.7741,-1.778,-1.7794,-1.7779,-1.7778,-1.7791,-1.7794,-1.7792,-1.7794,-1.7637,-1.7775,-1.7773,-1.7773,-1.7772,-1.7772,-1.7449,-1.7485,-1.751,-1.7551,-1.7571,-1.7597,-1.7632,-1.7642,-1.7679,-1.7721,-1.7717,-1.7767,-1.7793,-1.7843,-1.786,-1.79,-1.7882,-1.7901,-1.7905,-1.791,-1.7915,-1.7785,-1.7906,-1.7906,-1.7906,-1.7906,-1.7905,0,-1.7568,-1.7583,-1.7621,-1.766,-1.7692,-1.7675,-1.7704,-1.7733,-1.7777,-1.7802,-1.7836,-1.7888,-1.7929,-1.7944,-1.7984,-1.8013,-1.8007,-1.8024,-1.8022,-1.8025,-1.7929,-1.7914,-1.8028,-1.8028,-1.8028,-1.8028,-1.8028,-1.8028,-1.7634,-1.7695,-1.7697,-1.7768,-1.7782,-1.7831,-1.7849,-1.7873,-1.7893,-1.7952,-1.7986,-1.7995,-1.8016,-1.8058,-1.8096,-1.8099,-1.8115,-1.8134,-1.8135,-1.8044,-1.8032,-1.802,-1.8006,-1.8138,-1.8138,-1.8228,-1.8229,-1.8229]},{"header":{"parameterUnit":"m.s-1","parameterCategory":1,"la1":30.2991,"la2":30.254,"lo1":-89.0895,"lo2":-89.0444,"dy":0.0017,"dx":0.0017,"nx":28,"ny":28,"refTime":"2024-03-16T03:00:00:Z","depth":0,"parameterNumber":3,"parameterNumberName":"V-component_of_WINDS"},"data":[0,0,0,0,0,0,0,0,0,0,0,0,0,0,0,0,0,0,0,0,0,0,0,0,0,0,0,0,0,0,0,0,0,0,0,0,0,0,0,0,0,0,0,0,0,0,0,0,0,0,0,0,0,0,0,0,0,0,0.9889,0.9889,0,0.9931,0.9932,0.9932,0.9939,0.9938,0.9938,0.9938,0.9978,0.998,0.9981,0,0,0,0,0,0,0,0,0,0,0,0,0,0.9811,0.9813,0.9889,0.9889,0.989,0.9931,0.9932,0.9932,0.9939,0.9938,0.9938,0.9937,0.9978,0.9979,0.9981,0,0,0,0,0,0,0,0,0,0,0,0,0,0.9848,0.9813,0.9889,0.9898,0.9899,0.9931,0.9932,0.9932,0.9939,0.9938,0.9938,0.9937,0.9977,0.9979,0.9981,1.0005,0,0,0.9988,0.9989,0,0,0,0,0,0,0,0,0.9846,0.9851,0.9896,0.9897,0.9899,0.9929,0.9919,0.9957,0.9939,0.9924,0.9938,0.9937,0.9962,0.9965,0.9975,1.0007,1.0009,0.9988,0.9989,0.999,0.9991,0,0,0,0,0,0,0,0.9844,0.9849,0.9905,0.9897,0.9899,0.99,0.9904,0.9926,0.9945,0.9925,0.9926,0.9931,0.9963,0.9972,0.9976,1.001,0.9988,0.999,0.9991,0.9992,1.0065,1.0065,0,0,0,0,0,0,0.984,0.9847,0.9904,0.9907,0.9871,0.9901,0.9907,0.992,0.9945,0.9949,0.9931,0.9931,0.9969,0.9973,0.9977,1.0007,0.999,0.9992,0.9993,1.0064,1.0065,1.0066,0,0,0,0,0,0,0.9838,0.9845,0.9902,0.9877,0.9885,0.9903,0.9918,0.9921,0.9931,0.995,0.9953,0.9938,0.9969,0.9974,0.9999,1.0008,0.9993,0.9995,1.0063,1.0064,1.0065,1.0067,0,0,0,0,0,0,0.9836,0.9844,0.9854,0.9877,0.9886,0.9924,0.9919,0.9922,0.9935,0.9935,0.9957,0.996,0.9969,0.9995,1.0001,1.0011,0.9997,1.0063,1.0064,1.0065,1.0066,1.0068,1.0069,0,0,0,0,0,0.9833,0.9852,0.9854,0.9861,0.9899,0.9924,0.9929,0.994,0.9936,0.9945,0.9958,0.9959,1.0007,0.9998,1.0004,1.0015,1.0062,1.0063,1.0065,1.0065,1.0067,1.0069,0,0,0,0,0,0,0.9828,0.9855,0.9858,0.9885,0.9903,0.9925,0.9938,0.9942,0.996,0.9959,0.9971,0.9975,0.9999,1.001,0.9999,1.004,1.0034,1.0037,1.0032,1.0034,1.0036,1.0032,0.9999,0,0,0,0,0,0.983,0.9849,0.9872,0.9894,0.9902,0.9919,0.993,0.9937,0.9955,0.9962,0.9976,0.9993,1.0012,1.0024,1.0042,1.0068,1.0073,1.0079,1.008,1.0081,1.0083,1.0098,1.0101,1.0071,1.007,1.007,0,0,0.9834,0.9851,0.9863,0.9893,0.9907,0.9926,0.9925,0.9945,0.9959,0.9965,0.9989,1.0,1.002,1.0045,1.0057,1.0055,1.0093,1.0083,1.0084,1.0085,1.01,1.0102,1.0105,1.0072,1.0071,1.0071,0,0,0.9851,0.9867,0.9887,0.9901,0.9924,0.9935,0.9939,0.9962,0.997,0.9995,1.0,1.0017,1.0049,1.0063,1.0074,1.0098,1.01,1.0104,1.0112,1.0126,1.0128,1.013,1.0138,1.0141,1.0106,1.0106,1.0106,0,0.9853,0.9883,0.9896,0.9917,0.993,0.9938,0.9957,0.9971,0.9997,1.0006,1.0003,1.0044,1.0058,1.0086,1.0093,1.0101,1.0107,1.0101,1.0127,1.0129,1.0131,1.0139,1.0142,1.0106,1.0106,1.0106,1.0106,0,0.9885,0.9905,0.9919,0.9945,0.996,0.998,0.9995,1.0009,1.0015,1.0026,1.0051,1.0068,1.009,1.0098,1.0103,1.0128,1.0125,1.0125,1.0119,1.0134,1.0142,1.0145,1.0106,1.0106,1.0106,1.0106,0,0,0.9898,0.9933,0.9938,0.995,0.9976,0.9992,1.0012,1.0035,1.0046,1.0064,1.0081,1.0109,1.0109,1.0121,1.0129,1.0141,1.0159,1.0139,1.014,1.0142,1.0186,1.0186,1.0189,1.0161,1.0162,1.0162,1.0185,0,0.9918,0.9956,0.9968,0.9999,1.0018,1.0027,1.0045,1.0062,1.0073,1.0091,1.0103,1.0122,1.0121,1.0129,1.0141,1.0154,1.0168,1.0153,1.0176,1.0177,1.017,1.0193,1.0193,1.0213,1.0188,1.0188,1.0189,0,0.9946,0.9966,0.9999,1.0023,1.0032,1.0047,1.007,1.0087,1.0106,1.0114,1.0129,1.0136,1.0157,1.0151,1.018,1.0169,1.018,1.0188,1.0189,1.019,1.0183,1.0195,1.022,1.0222,1.0193,1.0193,1.0193,0,0.9952,0.9987,1.0012,1.0022,1.0051,1.0062,1.0074,1.0094,1.0107,1.0126,1.0135,1.0156,1.0167,1.0183,1.0195,1.019,1.0223,1.0218,1.0229,1.0229,1.0234,1.0234,1.026,1.0243,1.0243,1.0243,1.0243,0,0.9972,0.9992,1.0015,1.003,1.0052,1.0067,1.0088,1.0101,1.0118,1.0136,1.0144,1.016,1.0175,1.0193,1.0203,1.0225,1.023,1.0236,1.0238,1.0235,1.0234,1.0241,1.024,1.0243,1.0243,1.0243,1.0243,0,0.9982,0.9998,1.0025,1.0051,1.0058,1.0073,1.0095,1.0109,1.0122,1.0143,1.0149,1.0168,1.0189,1.0204,1.023,1.0237,1.0261,1.0263,1.0255,1.0256,1.0266,1.0264,1.0297,1.0302,1.0282,1.0282,1.0282,0,0.9993,1.0009,1.0036,1.0049,1.0062,1.0082,1.0096,1.0111,1.0125,1.015,1.0161,1.0183,1.0202,1.0235,1.0251,1.0272,1.0274,1.0284,1.0277,1.0273,1.0273,1.0272,1.0273,1.0285,1.0285,1.0285,1.0285,0,1.0011,1.0019,1.0039,1.0062,1.0079,1.0098,1.0116,1.0126,1.0144,1.0159,1.0182,1.0197,1.0225,1.0247,1.0269,1.0281,1.0286,1.0288,1.0291,1.0287,1.0281,1.0284,1.0257,1.0286,1.0286,1.0286,1.0286,1.0286,1.0022,1.0036,1.0058,1.008,1.0097,1.0114,1.0129,1.0144,1.0164,1.0189,1.0196,1.022,1.024,1.0271,1.0283,1.0301,1.03,1.0305,1.0306,1.0307,1.0307,1.0279,1.0305,1.0305,1.0305,1.0305,1.0305,0,1.004,1.0055,1.0075,1.0102,1.012,1.0125,1.0146,1.016,1.018,1.0199,1.0218,1.0244,1.0265,1.0283,1.0305,1.0316,1.0319,1.0322,1.032,1.0323,1.0307,1.0301,1.0319,1.0319,1.0319,1.0319,1.0319,1.0319,1.0051,1.0076,1.0087,1.0119,1.0134,1.0158,1.017,1.0186,1.0201,1.023,1.0248,1.0261,1.0279,1.0303,1.0322,1.0327,1.0334,1.0336,1.0341,1.0326,1.0324,1.0322,1.0317,1.0338,1.0338,1.0356,1.0356,1.0356]}]]